[[{"header":{"parameterUnit":"m.s-1","parameterCategory":1,"la1":30.2991,"la2":30.254,"lo1":-89.0895,"lo2":-89.0444,"dy":0.0017,"dx":0.0017,"nx":28,"ny":28,"refTime":"2025-02-09T09:00:00:Z","depth":0,"parameterNumber":2,"parameterNumberName":"U-component_of_WINDS"},"data":[0,0,0,0,0,0,0,0,0,0,0,0,0,0,0,0,0,0,0,0,0,0,0,0,0,0,0,0,0,0,0,0,0,0,0,0,0,0,0,0,0,0,0,0,0,0,0,0,0,0,0,0,0,0,0,0,0,0,-0.7768,-0.7767,0,-0.7732,-0.7731,-0.7731,-0.7675,-0.7674,-0.7673,-0.7672,-0.7636,-0.7635,-0.7635,0,0,0,0,0,0,0,0,0,0,0,0,0,-0.7788,-0.7788,-0.7768,-0.7767,-0.7767,-0.7732,-0.7731,-0.7731,-0.7676,-0.7674,-0.7673,-0.7672,-0.7636,-0.7635,-0.7635,0,0,0,0,0,0,0,0,0,0,0,0,0,-0.7768,-0.7788,-0.7768,-0.7735,-0.7732,-0.7732,-0.7731,-0.7731,-0.7676,-0.7674,-0.7673,-0.7671,-0.7636,-0.7635,-0.7635,-0.7665,0,0,-0.7635,-0.7635,0,0,0,0,0,0,0,0,-0.777,-0.7768,-0.774,-0.7737,-0.7734,-0.7707,-0.7725,-0.7709,-0.7676,-0.7697,-0.7672,-0.7671,-0.766,-0.7658,-0.7655,-0.7663,-0.7662,-0.7635,-0.7635,-0.7635,-0.7635,0,0,0,0,0,0,0,-0.7771,-0.7769,-0.7753,-0.774,-0.7736,-0.7722,-0.7718,-0.7722,-0.7688,-0.7695,-0.7691,-0.7688,-0.7658,-0.7655,-0.7653,-0.7661,-0.7635,-0.7635,-0.7635,-0.7635,-0.7692,-0.7693,0,0,0,0,0,0,-0.7777,-0.777,-0.7755,-0.7752,-0.7748,-0.7723,-0.7718,-0.7717,-0.7687,-0.7681,-0.7689,-0.7685,-0.7656,-0.7654,-0.7652,-0.7684,-0.7635,-0.7635,-0.7635,-0.769,-0.7692,-0.7694,0,0,0,0,0,0,-0.7778,-0.7776,-0.7756,-0.776,-0.7757,-0.7724,-0.7723,-0.7717,-0.7713,-0.7683,-0.7676,-0.7692,-0.7655,-0.7652,-0.7662,-0.7682,-0.7635,-0.7635,-0.7688,-0.7691,-0.7693,-0.775,0,0,0,0,0,0,-0.7779,-0.7777,-0.7788,-0.7761,-0.7757,-0.7767,-0.7724,-0.7717,-0.7713,-0.7708,-0.7684,-0.7678,-0.7653,-0.7663,-0.7662,-0.7681,-0.7635,-0.7686,-0.769,-0.7692,-0.7746,-0.7754,-0.776,0,0,0,0,0,-0.778,-0.7805,-0.7789,-0.7787,-0.777,-0.7768,-0.7766,-0.7737,-0.7715,-0.7726,-0.7706,-0.7679,-0.768,-0.7664,-0.7663,-0.7683,-0.7685,-0.7689,-0.7692,-0.7743,-0.7752,-0.776,0,0,0,0,0,0,-0.7835,-0.7801,-0.7782,-0.78,-0.7788,-0.7759,-0.7771,-0.7748,-0.7741,-0.7736,-0.77,-0.7695,-0.771,-0.7697,-0.768,-0.771,-0.7678,-0.7682,-0.7717,-0.7726,-0.7733,-0.7736,-0.7635,0,0,0,0,0,-0.7849,-0.7851,-0.7821,-0.784,-0.7834,-0.7804,-0.7803,-0.7781,-0.7767,-0.7761,-0.7742,-0.7729,-0.7727,-0.7726,-0.7722,-0.7744,-0.7738,-0.7757,-0.7764,-0.777,-0.7774,-0.7784,-0.7793,-0.7705,-0.7705,-0.7705,0,0,-0.7879,-0.786,-0.7864,-0.785,-0.7838,-0.7841,-0.78,-0.7805,-0.7806,-0.7762,-0.777,-0.7756,-0.7739,-0.7755,-0.7762,-0.7745,-0.7796,-0.7775,-0.778,-0.778,-0.7789,-0.7797,-0.7805,-0.7708,-0.7707,-0.7707,0,0,-0.7934,-0.792,-0.7934,-0.7923,-0.7905,-0.7885,-0.7888,-0.7863,-0.7852,-0.786,-0.7827,-0.7828,-0.7825,-0.7814,-0.7808,-0.786,-0.7834,-0.7859,-0.7897,-0.7908,-0.7915,-0.7921,-0.7939,-0.7946,-0.7863,-0.7863,-0.7863,0,-0.7973,-0.7975,-0.7944,-0.7951,-0.7946,-0.7906,-0.792,-0.791,-0.7892,-0.789,-0.7872,-0.7867,-0.7852,-0.7866,-0.7878,-0.7875,-0.7878,-0.7862,-0.7917,-0.7922,-0.7927,-0.7944,-0.7951,-0.7866,-0.7866,-0.7865,-0.7865,0,-0.8024,-0.8026,-0.804,-0.8023,-0.802,-0.803,-0.8001,-0.8001,-0.798,-0.7962,-0.7971,-0.7952,-0.7944,-0.7945,-0.7925,-0.7956,-0.7946,-0.7923,-0.7891,-0.7939,-0.7955,-0.7961,-0.7871,-0.787,-0.7869,-0.7868,0,0,-0.8112,-0.8079,-0.8084,-0.8076,-0.8054,-0.8055,-0.8064,-0.8056,-0.8057,-0.8046,-0.8052,-0.805,-0.8028,-0.8022,-0.8,-0.801,-0.8052,-0.7985,-0.7984,-0.7998,-0.8084,-0.8102,-0.811,-0.8035,-0.8036,-0.8037,-0.8086,0,-0.8163,-0.8175,-0.8147,-0.8167,-0.8169,-0.8131,-0.8139,-0.8126,-0.8109,-0.8108,-0.809,-0.8089,-0.8061,-0.8056,-0.8064,-0.8045,-0.8069,-0.8041,-0.804,-0.804,-0.8045,-0.8118,-0.8136,-0.8183,-0.8092,-0.8093,-0.8093,0,-0.8223,-0.8215,-0.8235,-0.8211,-0.8211,-0.8218,-0.8209,-0.8208,-0.8193,-0.818,-0.8173,-0.8148,-0.8155,-0.8124,-0.8133,-0.8115,-0.8113,-0.8103,-0.8104,-0.8103,-0.807,-0.8118,-0.8198,-0.8205,-0.8102,-0.8102,-0.8101,0,-0.8285,-0.828,-0.8291,-0.8285,-0.8258,-0.8264,-0.8253,-0.8236,-0.8233,-0.8225,-0.8223,-0.8216,-0.8211,-0.8206,-0.818,-0.816,-0.8192,-0.8159,-0.8181,-0.8182,-0.8189,-0.8189,-0.8269,-0.8188,-0.8188,-0.8188,-0.8188,0,-0.8344,-0.8357,-0.8318,-0.8325,-0.8339,-0.8307,-0.8322,-0.8307,-0.8293,-0.8296,-0.8263,-0.8267,-0.8231,-0.8231,-0.8211,-0.8221,-0.8219,-0.8209,-0.8203,-0.8212,-0.8213,-0.821,-0.8206,-0.819,-0.819,-0.8189,-0.8189,0,-0.8416,-0.839,-0.84,-0.8373,-0.8367,-0.8379,-0.8356,-0.8361,-0.8343,-0.8347,-0.8347,-0.8318,-0.8316,-0.8289,-0.8281,-0.8267,-0.8285,-0.8274,-0.8291,-0.8287,-0.831,-0.8308,-0.8391,-0.84,-0.8314,-0.8315,-0.8316,0,-0.8455,-0.8464,-0.8439,-0.8439,-0.843,-0.843,-0.8427,-0.8396,-0.8394,-0.8378,-0.8385,-0.8381,-0.8375,-0.8374,-0.8352,-0.8346,-0.8334,-0.8363,-0.8333,-0.8341,-0.8334,-0.8334,-0.8334,-0.8369,-0.8371,-0.8371,-0.8372,0,-0.8527,-0.8514,-0.8511,-0.8503,-0.85,-0.8493,-0.8483,-0.8485,-0.8451,-0.8451,-0.8448,-0.8445,-0.8437,-0.8433,-0.8423,-0.8411,-0.8386,-0.8382,-0.8387,-0.8395,-0.8405,-0.84,-0.8308,-0.838,-0.8379,-0.8379,-0.8378,-0.8378,-0.8583,-0.859,-0.8574,-0.8571,-0.8561,-0.8553,-0.8556,-0.8538,-0.8536,-0.8527,-0.8509,-0.851,-0.8494,-0.8479,-0.8469,-0.8469,-0.8454,-0.8461,-0.8463,-0.8465,-0.847,-0.8405,-0.8468,-0.8467,-0.8467,-0.8467,-0.8467,0,-0.8654,-0.8641,-0.8639,-0.8627,-0.8625,-0.8602,-0.859,-0.859,-0.8591,-0.8579,-0.8575,-0.8572,-0.8568,-0.8546,-0.854,-0.8544,-0.8532,-0.8543,-0.8543,-0.854,-0.8484,-0.848,-0.8553,-0.8553,-0.8553,-0.8553,-0.8553,-0.8553,-0.869,-0.87,-0.8685,-0.869,-0.8677,-0.8678,-0.8673,-0.8665,-0.8655,-0.8654,-0.8651,-0.8637,-0.862,-0.8613,-0.8608,-0.8601,-0.86,-0.8615,-0.8605,-0.8553,-0.8544,-0.8536,-0.8533,-0.8616,-0.8616,-0.8662,-0.8662,-0.8663]},{"header":{"parameterUnit":"m.s-1","parameterCategory":1,"la1":30.2991,"la2":30.254,"lo1":-89.0895,"lo2":-89.0444,"dy":0.0017,"dx":0.0017,"nx":28,"ny":28,"refTime":"2025-02-09T09:00:00:Z","depth":0,"parameterNumber":3,"parameterNumberName":"V-component_of_WINDS"},"data":[0,0,0,0,0,0,0,0,0,0,0,0,0,0,0,0,0,0,0,0,0,0,0,0,0,0,0,0,0,0,0,0,0,0,0,0,0,0,0,0,0,0,0,0,0,0,0,0,0,0,0,0,0,0,0,0,0,0,1.3,1.3,0,1.2979,1.2979,1.2978,1.2982,1.2983,1.2983,1.2983,1.2958,1.2957,1.2956,0,0,0,0,0,0,0,0,0,0,0,0,0,1.3041,1.304,1.3,1.3,1.3,1.2979,1.2979,1.2978,1.2982,1.2983,1.2983,1.2983,1.2958,1.2957,1.2956,0,0,0,0,0,0,0,0,0,0,0,0,0,1.3022,1.304,1.3,1.2999,1.2999,1.2979,1.2979,1.2978,1.2982,1.2983,1.2983,1.2984,1.2959,1.2957,1.2956,1.2935,0,0,1.2951,1.295,0,0,0,0,0,0,0,0,1.3023,1.302,1.3,1.2999,1.2999,1.2984,1.2984,1.2963,1.2982,1.2988,1.2983,1.2984,1.2966,1.2964,1.2958,1.2933,1.2932,1.2951,1.295,1.2949,1.2949,0,0,0,0,0,0,0,1.3024,1.3021,1.2992,1.2999,1.2999,1.2999,1.2997,1.298,1.2974,1.2988,1.2988,1.2986,1.2966,1.296,1.2958,1.2932,1.2951,1.2949,1.2948,1.2948,1.2888,1.2888,0,0,0,0,0,0,1.3026,1.3022,1.2992,1.2991,1.3013,1.2998,1.2995,1.2988,1.2974,1.2973,1.2985,1.2986,1.2962,1.296,1.2957,1.2931,1.2949,1.2948,1.2947,1.2889,1.2888,1.2888,0,0,0,0,0,0,1.3027,1.3024,1.2993,1.3007,1.3003,1.2996,1.2988,1.2987,1.2982,1.2972,1.2971,1.2981,1.2963,1.2959,1.294,1.2931,1.2947,1.2946,1.289,1.2889,1.2888,1.288,0,0,0,0,0,0,1.3028,1.3024,1.3017,1.3007,1.3002,1.2978,1.2988,1.2986,1.2979,1.298,1.2968,1.2966,1.2963,1.2943,1.2939,1.2929,1.2944,1.2891,1.2889,1.2888,1.2881,1.2879,1.2877,0,0,0,0,0,1.303,1.3014,1.3016,1.3012,1.2993,1.2977,1.2975,1.2972,1.2978,1.297,1.2965,1.2966,1.2932,1.2941,1.2936,1.2926,1.2891,1.289,1.2888,1.2882,1.2879,1.2877,0,0,0,0,0,0,1.3022,1.3013,1.3015,1.2996,1.2988,1.2978,1.2968,1.297,1.2958,1.2959,1.2956,1.2953,1.2934,1.2928,1.2937,1.2905,1.2913,1.291,1.2909,1.2907,1.2905,1.2906,1.2943,0,0,0,0,0,1.3018,1.3007,1.3,1.2983,1.2979,1.2974,1.2967,1.2967,1.2957,1.2953,1.2946,1.2936,1.2923,1.2915,1.2902,1.2881,1.2878,1.2871,1.2869,1.2867,1.2865,1.2853,1.285,1.2883,1.2883,1.2883,0,0,1.301,1.3004,1.2997,1.2982,1.2975,1.2963,1.2971,1.2958,1.2949,1.2951,1.2933,1.2928,1.2916,1.2896,1.2886,1.289,1.2856,1.2865,1.2864,1.2863,1.2851,1.2848,1.2845,1.2882,1.2882,1.2882,0,0,1.2988,1.2983,1.2969,1.2963,1.2953,1.295,1.2947,1.2937,1.2934,1.2916,1.2918,1.2906,1.2884,1.2876,1.2869,1.2845,1.2846,1.2841,1.283,1.2819,1.2816,1.2814,1.2805,1.2802,1.2839,1.2839,1.2839,0,1.2979,1.2962,1.2961,1.2948,1.2942,1.2945,1.293,1.2923,1.291,1.2904,1.2909,1.2882,1.2874,1.2852,1.2847,1.2841,1.2836,1.2842,1.2817,1.2814,1.2812,1.2804,1.2801,1.2839,1.2839,1.2839,1.2839,0,1.295,1.2939,1.2928,1.2917,1.2909,1.2895,1.2892,1.2884,1.2884,1.288,1.2862,1.2853,1.2839,1.2834,1.2833,1.2811,1.2814,1.2818,1.2826,1.2809,1.2801,1.2797,1.2838,1.2838,1.2838,1.2838,0,0,1.2922,1.2912,1.2908,1.2903,1.2893,1.2883,1.2869,1.2857,1.285,1.2841,1.2828,1.281,1.2814,1.2806,1.2804,1.2794,1.2776,1.2799,1.2799,1.2795,1.2751,1.2749,1.2745,1.2777,1.2776,1.2776,1.2752,0,1.29,1.2877,1.2877,1.2855,1.2844,1.2847,1.2835,1.2827,1.2823,1.2812,1.2808,1.2795,1.2801,1.2796,1.2786,1.278,1.2767,1.2782,1.2764,1.2764,1.2767,1.2741,1.2738,1.2716,1.2749,1.2749,1.2748,0,1.2871,1.2862,1.284,1.2832,1.2827,1.2817,1.2805,1.2795,1.2786,1.2784,1.2776,1.2776,1.2761,1.277,1.2749,1.2759,1.2752,1.2748,1.2747,1.2745,1.2755,1.2738,1.2709,1.2706,1.2744,1.2744,1.2744,0,1.2852,1.2835,1.2819,1.2815,1.2805,1.2798,1.2793,1.2785,1.2778,1.2768,1.2763,1.2751,1.2744,1.2734,1.273,1.2737,1.2709,1.2718,1.2706,1.2706,1.27,1.27,1.2669,1.2696,1.2696,1.2696,1.2696,0,1.2827,1.2813,1.2811,1.2802,1.2786,1.2785,1.277,1.2766,1.2758,1.2747,1.2749,1.2738,1.2734,1.2723,1.272,1.2703,1.27,1.2697,1.2696,1.2697,1.2697,1.2691,1.2693,1.2695,1.2695,1.2695,1.2696,0,1.2804,1.2802,1.2785,1.2778,1.2776,1.2765,1.2758,1.2749,1.2746,1.2732,1.2728,1.2723,1.271,1.2705,1.2689,1.2687,1.2667,1.2667,1.267,1.267,1.2659,1.266,1.2623,1.2618,1.2648,1.2648,1.2647,0,1.2788,1.2777,1.277,1.2763,1.2759,1.2748,1.2741,1.274,1.2732,1.2722,1.2713,1.27,1.269,1.2668,1.2662,1.2649,1.265,1.2638,1.2648,1.2648,1.2649,1.265,1.2648,1.2635,1.2635,1.2635,1.2635,0,1.2759,1.2759,1.275,1.274,1.2732,1.2724,1.2716,1.271,1.2708,1.2699,1.2687,1.2679,1.2663,1.265,1.2637,1.2631,1.2632,1.2632,1.2628,1.2629,1.2631,1.2629,1.2665,1.2632,1.2633,1.2633,1.2633,1.2633,1.2739,1.273,1.2723,1.2713,1.2707,1.27,1.2691,1.2687,1.2677,1.2665,1.2664,1.265,1.2641,1.2625,1.2619,1.2607,1.261,1.2605,1.2604,1.2603,1.2602,1.2633,1.2604,1.2604,1.2605,1.2605,1.2605,0,1.271,1.2706,1.2697,1.2687,1.2678,1.2682,1.2674,1.2666,1.2654,1.2646,1.2637,1.2622,1.2609,1.2603,1.259,1.2582,1.2582,1.2579,1.2579,1.2578,1.26,1.2604,1.2579,1.2579,1.2579,1.2579,1.2579,1.2579,1.2694,1.268,1.2679,1.2661,1.2657,1.2644,1.2639,1.2633,1.2627,1.261,1.2601,1.2597,1.259,1.2577,1.2565,1.2563,1.2558,1.2555,1.2553,1.2573,1.2576,1.2579,1.2583,1.2554,1.2554,1.2532,1.2532,1.2532]}]]